Skip Page Navigation
NASA JPL Caltech
NASA Logo - Jet Propulsion Laboratory + View the NASA Portal
+ Center for Near-Earth Object Studies
JPL Home Earth Solar System Stars & Galaxies Technology
JPL Solar System Dynamics
BODIES ORBITS EPHEMERIDES TOOLS PHYSICAL DATA DISCOVERY FAQ SITE MAP
JPL Small-Body Database Browser
Search: [ help ]  
213683 (2002 TA113)
Classification: Main-belt Asteroid          SPK-ID: 2213683
Ephemeris | Orbit Diagram | Orbital Elements | Mission Design | Physical Parameters | Discovery Circumstances ]

[ show orbit diagram ]
Orbital Elements at Epoch 2459200.5 (2020-Dec-17.0) TDB
Reference: JPL 22 (heliocentric ecliptic J2000)
 Element Value Uncertainty (1-sigma)   Units 
e .1042350940538323 8.4897e-08  
a 2.598833967388394 1.8531e-08 au
q 2.32794426436737 2.1713e-07 au
i 10.33791548127471 7.233e-06 deg
node 15.70511407458325 2.352e-05 deg
peri 18.22963906324642 3.5561e-05 deg
M 97.07591937955017 2.2876e-05 deg
tp 2458787.856279879129
(2019-Oct-31.35627988)
9.8357e-05 TDB
period 1530.26353181062
4.19
1.6367e-05
4.481e-08
d
yr
n .2352535968586045 2.5162e-09 deg/d
Q 2.869723670409417 2.0462e-08 au
  Orbit Determination Parameters
   # obs. used (total)      401  
   data-arc span      8231 days (22.54 yr)  
   first obs. used      1998-09-26  
   last obs. used      2021-04-09  
   planetary ephem.      DE441  
   SB-pert. ephem.      SB441-N16  
   condition code      0  
   norm. resid. RMS      .59278  
   source      ORB  
   producer      Otto Matic  
   solution date      2021-May-04 10:39:34  

Additional Information
 Earth MOID = 1.33425 au 
 Jupiter MOID = 2.58306 au 
 T_jup = 3.385 
[ show covariance matrix ]

Ephemeris | Orbit Diagram | Orbital Elements | Mission Design | Physical Parameters | Discovery Circumstances ]

Physical Parameter Table
Parameter Symbol Value Units Sigma Reference Notes
absolute magnitude H 16.25   n/a MPCxxxxx  
diameter diameter 3.138 km 0.776 urn:nasa:pds:neowise_diameters_albedos::2.0[mainbelt] (http://adsabs.harvard.edu/abs/2011ApJ...741...68M)  
geometric albedo albedo 0.078   0.026 urn:nasa:pds:neowise_diameters_albedos::2.0[mainbelt] (http://adsabs.harvard.edu/abs/2011ApJ...741...68M)  

213683 (2002 TA113)          Discovered 2002-Oct-03 by LINEAR at Socorro
Reference: 20090509/Numbers.arcLast Updated: 2009-05-11

Alternate Designations
 2002 TA113 = 1998 SW133 
Ephemeris | Orbit Diagram | Orbital Elements | Mission Design | Physical Parameters | Discovery Circumstances ]
ABOUT SSD CREDITS/AWARDS PRIVACY/COPYRIGHT GLOSSARY LINKS
FirstGov 2021-May-14 15:05 UT
(server date/time)  
NASA Home Page
Site Manager:   Ryan S. Park
Webmaster  Alan B. Chamberlin